Regional Weather Roundup
Issued by NWS

Home | Current Version | Previous Version | Graphics & Text | Print | Product List | Glossary On
Versions: 1 2 3 4 5 6 7 8 9 10 11 12 13 14 15 16 17 18 19 20 21 22 23 24 25 26 27 28 29 30 31 32 33 34 35 36 37 38 39 40 41 42 43 44 45 46 47 48 49 50
435
ASUS43 KMKX 220200
RWRWI

WISCONSIN REGIONAL WEATHER ROUNDUP
NATIONAL WEATHER SERVICE MILWAUKEE/SULLIVAN WI
900 PM CDT MON AUG 21 2017

NOTE: "FAIR" INDICATES FEW OR NO CLOUDS BELOW 12,000 FEET WITH NO
SIGNIFICANT WEATHER AND/OR OBSTRUCTIONS TO VISIBILITY.

WIZ001-002-006>008-014>016-023>028-220300-
NORTHWEST WISCONSIN

CITY           SKY/WX    TMP DP  RH WIND       PRES   REMARKS
SUPERIOR ARPT  LGT RAIN  62  61  97 NE5       29.82S
ASHLAND        MOCLDY    61  59  93 SE3       29.81F
HAYWARD        CLOUDY    66  64  93 S6        29.83F
SIREN          CLOUDY    69  63  82 W13G18    29.84F
CUMBERLAND     MOCLDY    64  63  94 SW5       29.85F
RICE LAKE      MOCLDY    67  62  85 CALM      29.86F
CHETEK         MOCLDY    68  63  85 W5        29.86F
LADYSMITH      MOCLDY    69  67  94 CALM      29.88S
EAU CLAIRE     NOT AVBL
MENOMONIE      CLOUDY    67  63  85 CALM      29.85F
NEW RICHMOND   CLOUDY    66  64  92 SW3       29.86F
OSCEOLA        CLOUDY    67  67 100 SW6       29.87F
$$

WIZ003>005-009-010-017-018-220300-
NORTH CENTRAL WISCONSIN

CITY           SKY/WX    TMP DP  RH WIND       PRES   REMARKS
MANITOWISH WTR CLOUDY    68  68 100 S3        29.85F
ARBOR VITAE    CLOUDY    69  67  95 CALM      29.86F
WOODRUFF       CLOUDY    69  67  95 CALM      29.86F
RHINELANDER    CLOUDY    68  67  96 W6        29.87F
EAGLE RIVER    CLOUDY    66  65  98 CALM      29.87S
LAND O LAKES   CLOUDY    67  66  96 CALM      29.88S
PHILLIPS       CLOUDY    69  69  98 CALM      29.87R
TOMAHAWK         N/A     66  64  96 CALM      29.87F
MEDFORD        CLOUDY    67  64  91 SW3       29.87S
MERRILL        NOT AVBL
$$

WIZ029-030-035-036-043>047-220300-
CENTRAL WISCONSIN

CITY           SKY/WX    TMP DP  RH WIND       PRES   REMARKS
WAUSAU         CLOUDY    70  64  81 S8        29.83F
MOSINEE        CLEAR     70  64  83 S5        29.86F
MARSHFIELD     CLOUDY    66  63  90 NW5       29.83F
STEVENS POINT  LGT RAIN  67  66  98 S6        29.88F
WAUPACA        CLOUDY    74  65  73 S6        29.89F
WAUTOMA        LGT RAIN  72  66  81 S5        29.89F
WISC RAPIDS    LGT RAIN  68  65  90 S7        29.85F
CAMP DOUGLAS   NOT AVBL
$$

WIZ011>013-019>022-031-037>040-048>050-220300-
NORTHEAST WISCONSIN

CITY           SKY/WX    TMP DP  RH WIND       PRES   REMARKS
ANTIGO         CLOUDY    66  66  98 S3        29.87F
SHAWANO        PTCLDY    75  67  76 SW3       29.86F
OCONTO         CLOUDY    73  69  87 S5        29.86F
STURGEON BAY   MOCLDY    71  66  84 S9        29.88F
GREEN BAY      MOCLDY    74  71  91 S6        29.87F
MANITOWOC      NOT AVBL
APPLETON       MOCLDY    72  66  83 SW6       29.88F
CLINTONVILLE   MOCLDY    73  64  73 S8        29.87F
OSHKOSH        CLOUDY    72  69  90 S5        29.89F
$$

WIZ032>034-041-042-053>061-220300-
SOUTHWEST WISCONSIN

CITY           SKY/WX    TMP DP  RH WIND       PRES   REMARKS
LA CROSSE      CLOUDY    70  66  87 SW7       29.81F
SPARTA         LGT RAIN  65  63  95 SE3       29.82F
VIROQUA        CLOUDY    65  65 100 CALM      29.86F
BOSCOBEL       LGT RAIN  70  67  90 SE3       29.89F
PRAIRIE DU CHI LGT RAIN  69  65  88 CALM      29.91F
PLATTEVILLE    CLOUDY    72  72 100 SW3       29.96R
$$

WIZ056-057-062-063-064-067-068-220300-
SOUTH CENTRAL WISCONSIN

CITY           SKY/WX    TMP DP  RH WIND       PRES   REMARKS
REEDSBURG      LGT RAIN  72  67  85 W8        29.92S
BARABOO/DELLS  CLOUDY    72  65  78 SW5       29.91F
LONE ROCK      LGT RAIN  72  68  87 VRB3      29.91F
MINERAL POINT  CLOUDY    72  72 100 SW5       29.96R
MADISON        MOCLDY    74  67  78 S5        29.91F
MIDDLETON      MOCLDY    74  67  79 SW6       29.93S
WATERTOWN      PTCLDY    71  71  99 S5        29.92F
MONROE         CLOUDY    72  68  88 S7        29.95S
JANESVILLE     MOCLDY    73  72  94 S6        29.93F
$$

WIZ051-052-058>065-066-070>072-220300-
SOUTHEAST WISCONSIN

CITY           SKY/WX    TMP DP  RH WIND       PRES   REMARKS
MILWAUKEE      MOCLDY    78  69  73 SW10      29.92F HX  80
WAUKESHA       PTCLDY    72  64  78 SW5       29.95
MILWAUKEE/TIMM PTCLDY    75  64  69 SW6       29.93F
RACINE         CLOUDY    76  68  76 SW9       29.95F
KENOSHA        CLOUDY    76  68  76 SW8       29.95S
FOND DU LAC    CLOUDY    72  67  84 S5        29.90F
SHEBOYGAN      CLOUDY    72  72 100 S5        29.89F FOG
WEST BEND      MOCLDY    72  70  94 CALM      29.91F
JUNEAU         CLOUDY    71  67  88 S5        29.93F
$$

LSZ147-162-220300-
LAKE SUPERIOR

STATION/POSITION TIME  TEMP    WIND        PRES    WAVE
                       AIR SEA DIR/SP/G            HT/PER
                 (UTC) (F)     (DEG/KT/KT) (MB)    (FT/S)
W MID LAKE BUOY  0050   62 60   30/  8/ 10 1010.5F   0
DEVILS ISLAND    0100   60      20/ 10/ 12 1010.7F
PORT WING        0030   71      CALM  /  3 1010.2F
SAXON HARBOR     0140   64     190/  2/  5 1009.1F
$$

LMZ867-665-643>646-220300-
LAKE MICHIGAN

STATION/POSITION TIME  TEMP    WIND        PRES    WAVE
                       AIR SEA DIR/SP/G            HT/PER
                 (UTC) (F)     (DEG/KT/KT) (MB)    (FT/S)
S GREEN BAY BUOY 0130   74 73  180/ 14/ 17 1011.1F
N MID LAKE BUOY  0050   70 69  190/  8/ 10 1012.1F   1
NORTHPORT PIER   0140   71     170/  4/ 11 1011.2F
KEWAUNEE LAKESHO 0130   68     180/  8/  9 1011.4F
SHEBOYGAN LAKESH 0100   72     180/ 12/ 13 1012.7F
PORT WASHINGTON  0140   73     170/  2/  5 1013.5F
ATWATER BUOY     0009   73 69  170/ 12/ 16 1013.9F
MILWAUKEE LAKESH 0140   78     230/ 13/ 15   N/A
S MID LAKE BUOY  0050   74 72  160/ 12/ 16 1014.2F   1/ 3
KENOSHA   LAKESH 0100   79     210/  7/ 12 1013.5
$$

TC  - TEMPERATURE IN CELSIUS
VSB - VISIBILITY IN STATUTE MILES
WCI - WIND CHILL INDEX
HX  - HEAT INDEX





USA.gov is the U.S. government's official web portal to all federal, state and local government web resources and services.